This is the latest recevied weather packets stored in our database for station/object DG6YGE-6. If no packets are shown the sender has not sent any weather packets the latest 1 day(s).
| Time | Temp. | Humidity | Pressure | Rain* | Wind** | Luminosity | Snow |
|---|---|---|---|---|---|---|---|
| 1778069350 | 8.33° C | 94% | 1005.6 hPa | 1.02 mm | - | 113 W/m² | - |
| 1778066350 | 7.78° C | 94% | 1005.7 hPa | 0.76 mm | - | 114 W/m² | - |
| 1778065754 | 7.78° C | 94% | 1005.6 hPa | 0.76 mm | - | 96 W/m² | - |
| 1778065154 | 7.78° C | 94% | 1005.5 hPa | 0.51 mm | - | 117 W/m² | - |
| 1778063354 | 7.78° C | 94% | 1005.5 hPa | 0.51 mm | - | 96 W/m² | - |
| 1778062754 | 7.22° C | 94% | 1005.5 hPa | 0.76 mm | - | 74 W/m² | - |
| 1778062154 | 7.22° C | 94% | 1005.4 hPa | 0.76 mm | - | 75 W/m² | - |
| 1778060954 | 7.78° C | 94% | 1005.3 hPa | 0.76 mm | - | 133 W/m² | - |
| 1778060354 | 7.22° C | 94% | 1005.2 hPa | 0.76 mm | - | 124 W/m² | - |
| 1778059754 | 7.22° C | 94% | 1005.1 hPa | 1.02 mm | - | 104 W/m² | - |
| 1778059154 | 7.22° C | 94% | 1005.1 hPa | 1.02 mm | - | 125 W/m² | - |
| 1778058554 | 7.22° C | 94% | 1005 hPa | 0.76 mm | - | 123 W/m² | - |
| 1778057954 | 7.22° C | 94% | 1004.9 hPa | 1.02 mm | - | 131 W/m² | - |
| 1778057354 | 7.22° C | 94% | 1004.8 hPa | 1.02 mm | - | 149 W/m² | - |
| 1778056754 | 7.22° C | 94% | 1004.6 hPa | 1.27 mm | - | 150 W/m² | - |
| 1778056154 | 7.22° C | 94% | 1004.6 hPa | 1.27 mm | - | 140 W/m² | - |
| 1778055554 | 6.67° C | 94% | 1004.5 hPa | 1.52 mm | - | 138 W/m² | - |
| 1778054954 | 6.67° C | 94% | 1004.5 hPa | 2.03 mm | - | 135 W/m² | - |
| 1778053754 | 6.67° C | 94% | 1004.4 hPa | 2.29 mm | - | 120 W/m² | - |
| 1778053154 | 6.67° C | 94% | 1004.5 hPa | 2.54 mm | - | 112 W/m² | - |
| 1778052554 | 6.67° C | 94% | 1004.3 hPa | 2.54 mm | - | 107 W/m² | - |
| 1778051954 | 6.67° C | 93% | 1004.3 hPa | 2.54 mm | - | 89 W/m² | - |
| 1778051354 | 6.67° C | 93% | 1004.4 hPa | 2.54 mm | - | 79 W/m² | - |
| 1778050154 | 6.67° C | 93% | 1004.3 hPa | 2.29 mm | - | 54 W/m² | - |
| 1778049554 | 6.67° C | 93% | 1004.3 hPa | 2.29 mm | - | 48 W/m² | - |
* Rain latest hour (hover to see other rain measurements)
** Current wind speed in m/s (hover to see current wind gust speed)